• In Romania
  • List of Countries
  • For 7 days
  • Water Temperature
  • Satellite Maps
  • Weather Map
  • Weather Widgets
  • user-avatar
    Login

    Hourly Weather Belfast

    Today, 21 February, Wednesday

    Time Temperature Precipitation Wind Pressure Humidity
    00:00 +3°C° 0 mm 2 mps 771 mmHg 90%
    01:00 +3°C° 0 mm 2 mps 771 mmHg 90%
    02:00 +2°C° 0 mm 2 mps 770 mmHg 90%
    03:00 +3°C° 0 mm 1 mps 770 mmHg 90%
    04:00 +3°C° 0 mm 1 mps 770 mmHg 90%
    05:00 +3°C° 0 mm 1 mps 770 mmHg 90%
    06:00 +3°C° 0 mm 1 mps 770 mmHg 90%
    07:00 +3°C° 0 mm 1 mps 770 mmHg 89%
    08:00 +4°C° 0 mm 1 mps 770 mmHg 88%
    09:00 +5°C° 0 mm 1 mps 770 mmHg 87%
    10:00 +5°C° 0 mm 2 mps 769 mmHg 83%
    11:00 +5°C° 0 mm 3 mps 769 mmHg 80%
    12:00 +8°C° 0 mm 3 mps 769 mmHg 76%
    13:00 +8°C° 0 mm 3 mps 769 mmHg 76%
    14:00 +7°C° 0 mm 4 mps 768 mmHg 75%
    15:00 +7°C° 0 mm 4 mps 768 mmHg 75%
    16:00 +6°C° 0 mm 4 mps 768 mmHg 81%
    17:00 +5°C° 0 mm 4 mps 767 mmHg 86%
    18:00 +3°C° 0 mm 4 mps 767 mmHg 91%
    19:00 +3°C° 0 mm 4 mps 767 mmHg 92%
    20:00 +3°C° 0 mm 4 mps 767 mmHg 93%
    21:00 +1°C° 0 mm 4 mps 767 mmHg 93%
    22:00 +1°C° 0 mm 4 mps 767 mmHg 94%
    23:00 +1°C° 0 mm 4 mps 767 mmHg 94%

    Tomorrow, 22 February, Thursday

    Time Temperature Precipitation Wind Pressure Humidity
    00:00 +1°C° 0 mm 4 mps 767 mmHg 94%
    01:00 +1°C° 0 mm 4 mps 766 mmHg 94%
    02:00 +1°C° 0 mm 4 mps 766 mmHg 94%
    03:00 +1°C° 0 mm 4 mps 766 mmHg 94%
    04:00 +1°C° 0 mm 4 mps 766 mmHg 94%
    05:00 +1°C° 0 mm 4 mps 765 mmHg 93%
    06:00 +1°C° 0 mm 4 mps 765 mmHg 93%
    07:00 +1°C° 0 mm 4 mps 765 mmHg 91%
    08:00 +3°C° 0 mm 4 mps 765 mmHg 89%
    09:00 +3°C° 0 mm 4 mps 765 mmHg 87%
    10:00 +3°C° 0 mm 5 mps 765 mmHg 83%
    11:00 +5°C° 0 mm 5 mps 765 mmHg 80%
    12:00 +5°C° 0 mm 5 mps 765 mmHg 76%
    13:00 +5°C° 0 mm 5 mps 764 mmHg 76%
    14:00 +6°C° 0 mm 5 mps 764 mmHg 76%
    15:00 +6°C° 0 mm 5 mps 764 mmHg 76%
    16:00 +5°C° 0 mm 5 mps 764 mmHg 79%
    17:00 +5°C° 0 mm 5 mps 764 mmHg 81%
    18:00 +4°C° 0 mm 4 mps 763 mmHg 84%
    19:00 +3°C° 0 mm 5 mps 763 mmHg 84%
    20:00 +3°C° 0 mm 5 mps 763 mmHg 85%
    21:00 +3°C° 0 mm 5 mps 763 mmHg 85%
    22:00 +3°C° 0.1 mm 5 mps 763 mmHg 86%
    23:00 +3°C° 0.1 mm 5 mps 763 mmHg 86%

    Day after tomorrow, 23 February, Friday

    Time Temperature Precipitation Wind Pressure Humidity
    00:00 +3°C° 0.1 mm 5 mps 763 mmHg 86%
    01:00 +3°C° 0.1 mm 5 mps 763 mmHg 86%
    02:00 +3°C° 0.1 mm 5 mps 763 mmHg 87%
    03:00 +2°C° 0.1 mm 5 mps 763 mmHg 87%
    04:00 +2°C° 0 mm 6 mps 763 mmHg 87%
    05:00 +2°C° 0 mm 6 mps 763 mmHg 87%
    06:00 +1°C° 0 mm 6 mps 763 mmHg 87%
    07:00 +2°C° 0 mm 6 mps 763 mmHg 86%
    08:00 +2°C° 0 mm 6 mps 763 mmHg 85%
    09:00 +2°C° 0 mm 7 mps 763 mmHg 85%
    10:00 +3°C° 0 mm 7 mps 763 mmHg 80%
    11:00 +2°C° 0 mm 8 mps 763 mmHg 76%
    12:00 +2°C° 0 mm 8 mps 763 mmHg 72%
    13:00 +2°C° 0 mm 8 mps 762 mmHg 70%
    14:00 +4°C° 0 mm 8 mps 762 mmHg 67%
    15:00 +4°C° 0 mm 8 mps 762 mmHg 65%
    16:00 +2°C° 0 mm 8 mps 762 mmHg 67%
    17:00 +2°C° 0 mm 7 mps 762 mmHg 69%
    18:00 0°C° 0 mm 7 mps 761 mmHg 71%
    19:00 0°C° 0 mm 7 mps 761 mmHg 72%
    20:00 +1°C° 0 mm 8 mps 762 mmHg 73%
    21:00 +1°C° 0 mm 8 mps 762 mmHg 74%
    22:00 +1°C° 0 mm 8 mps 762 mmHg 74%
    23:00 +1°C° 0 mm 9 mps 762 mmHg 74%

    24 February, Saturday

    Time Temperature Precipitation Wind Pressure Humidity
    00:00 0°C° 0 mm 9 mps 762 mmHg 74%
    01:00 0°C° 0 mm 9 mps 762 mmHg 73%
    02:00 0°C° 0 mm 9 mps 762 mmHg 73%
    03:00 -1°C° 0 mm 9 mps 762 mmHg 72%
    04:00 -1°C° 0 mm 9 mps 762 mmHg 73%
    05:00 -1°C° 0 mm 9 mps 762 mmHg 74%
    06:00 -1°C° 0 mm 9 mps 763 mmHg 75%
    07:00 -1°C° 0 mm 9 mps 763 mmHg 73%
    08:00 0°C° 0 mm 9 mps 763 mmHg 72%
    09:00 0°C° 0 mm 9 mps 763 mmHg 70%
    10:00 +1°C° 0 mm 9 mps 764 mmHg 67%
    11:00 +1°C° 0 mm 9 mps 764 mmHg 64%
    12:00 +2°C° 0 mm 10 mps 764 mmHg 61%
    13:00 +2°C° 0 mm 9 mps 764 mmHg 61%
    14:00 +2°C° 0 mm 9 mps 764 mmHg 60%
    15:00 +2°C° 0 mm 9 mps 764 mmHg 60%
    16:00 +2°C° 0 mm 8 mps 764 mmHg 63%
    17:00 +1°C° 0 mm 8 mps 765 mmHg 65%
    18:00 0°C° 0 mm 7 mps 765 mmHg 68%
    19:00 0°C° 0 mm 8 mps 765 mmHg 70%
    20:00 0°C° 0 mm 8 mps 766 mmHg 71%
    21:00 0°C° 0 mm 8 mps 766 mmHg 73%
    22:00 0°C° 0 mm 8 mps 767 mmHg 74%
    23:00 0°C° 0 mm 8 mps 767 mmHg 75%

    25 February, Sunday

    Time Temperature Precipitation Wind Pressure Humidity
    00:00 0°C° 0 mm 8 mps 767 mmHg 76%
    01:00 -1°C° 0 mm 8 mps 767 mmHg 77%
    02:00 -1°C° 0 mm 8 mps 768 mmHg 79%
    03:00 -1°C° 0 mm 8 mps 768 mmHg 80%
    04:00 -1°C° 0 mm 8 mps 768 mmHg 81%
    05:00 -1°C° 0 mm 8 mps 768 mmHg 81%
    06:00 -1°C° 0 mm 8 mps 768 mmHg 82%
    07:00 -1°C° 0 mm 8 mps 768 mmHg 80%
    08:00 0°C° 0 mm 8 mps 768 mmHg 78%
    09:00 0°C° 0 mm 8 mps 769 mmHg 76%
    10:00 +1°C° 0 mm 9 mps 769 mmHg 73%
    11:00 +2°C° 0 mm 9 mps 769 mmHg 70%
    12:00 +2°C° 0 mm 9 mps 769 mmHg 67%
    13:00 +2°C° 0 mm 8 mps 769 mmHg 66%
    14:00 +2°C° 0 mm 8 mps 769 mmHg 65%
    15:00 +2°C° 0 mm 8 mps 768 mmHg 65%
    16:00 +2°C° 0 mm 7 mps 768 mmHg 67%
    17:00 +2°C° 0 mm 7 mps 768 mmHg 70%
    18:00 +1°C° 0 mm 6 mps 769 mmHg 72%
    19:00 +1°C° 0 mm 6 mps 769 mmHg 73%
    20:00 +1°C° 0 mm 6 mps 769 mmHg 74%
    21:00 -1°C° 0 mm 7 mps 769 mmHg 75%
    22:00 -1°C° 0 mm 7 mps 769 mmHg 77%
    23:00 -1°C° 0 mm 6 mps 770 mmHg 78%

    26 February, Monday

    Time Temperature Precipitation Wind Pressure Humidity
    00:00 -1°C° 0 mm 6 mps 770 mmHg 80%
    01:00 -1°C° 0 mm 6 mps 770 mmHg 80%
    02:00 -2°C° 0 mm 6 mps 770 mmHg 81%
    03:00 -2°C° 0 mm 6 mps 769 mmHg 82%
    04:00 -2°C° 0 mm 6 mps 769 mmHg 82%
    05:00 -3°C° 0 mm 6 mps 769 mmHg 82%
    06:00 -3°C° 0 mm 6 mps 769 mmHg 82%
    07:00 -2°C° 0 mm 6 mps 769 mmHg 79%
    08:00 -2°C° 0 mm 7 mps 769 mmHg 76%
    09:00 -1°C° 0 mm 7 mps 770 mmHg 73%
    10:00 0°C° 0 mm 7 mps 770 mmHg 69%
    11:00 0°C° 0 mm 8 mps 770 mmHg 66%
    12:00 +1°C° 0 mm 8 mps 770 mmHg 62%
    13:00 +1°C° 0 mm 8 mps 769 mmHg 61%
    14:00 +1°C° 0 mm 8 mps 769 mmHg 61%
    15:00 +1°C° 0 mm 8 mps 769 mmHg 60%
    16:00 0°C° 0 mm 7 mps 769 mmHg 63%
    17:00 -1°C° 0 mm 7 mps 769 mmHg 67%
    18:00 -2°C° 0 mm 7 mps 769 mmHg 70%
    19:00 -2°C° 0 mm 7 mps 769 mmHg 69%
    20:00 -2°C° 0 mm 7 mps 770 mmHg 68%
    21:00 -2°C° 0 mm 7 mps 770 mmHg 68%
    22:00 -2°C° 0 mm 7 mps 770 mmHg 68%
    23:00 -2°C° 0 mm 7 mps 770 mmHg 68%
    Show more